Location: Ash Swamp
(41.5170°N, 74.6157°W)
Time: 02:17:35
(UTC+00:00)

Cosmos 1076 Rocket - Pass Details

Date: 14 July 2020
Orbit: 589 x 613 km, 82.5° (Epoch: 14 August)

Event Time Altitude Azimuth Distance (km) Brightness Sun altitude
Exits shadow 02:20:05 25° 174° (S) 1,200 4.6 -16.3°
Maximum altitude 02:22:27 70° 95° (E) 637 3.4 -16.6°
Drops below altitude 10° 02:26:41 10° 13° (NNE) 1,933 6.6 -17.1°
Sets 02:28:54 0° 11° (N) 2,837 7.6 -17.3°
